Bull Shoals Lake Weather Center

Moon Phase Calendar



Bull Shoals Lake Water Level
Online Cameras

 


      

Current Conditions in Bull Shoals
7/17/2024 5:38:23 AM

72°F
Feels Like 73
Rain
Humidity
99%
Pressure
29.94"
Wind
2.1 mph (WNW)
Dew Point
72°F
UV Index
0/10 (Low)
Visibility
3 mi

Hourly Forecast

Date & Time Wed, Jul 17
5:00 AM
Wed, Jul 17
6:00 AM
Wed, Jul 17
7:00 AM
Wed, Jul 17
8:00 AM
Wed, Jul 17
9:00 AM
Wed, Jul 17
10:00 AM
Wed, Jul 17
11:00 AM
Wed, Jul 17
12:00 PM
Wed, Jul 17
1:00 PM
Wed, Jul 17
2:00 PM
Wed, Jul 17
3:00 PM
Wed, Jul 17
4:00 PM
Wed, Jul 17
5:00 PM
Wed, Jul 17
6:00 PM
Wed, Jul 17
7:00 PM
Wed, Jul 17
8:00 PM
Wed, Jul 17
9:00 PM
Wed, Jul 17
10:00 PM
Wed, Jul 17
11:00 PM
Thu, Jul 18
12:00 AM
Thu, Jul 18
1:00 AM
Thu, Jul 18
2:00 AM
Thu, Jul 18
3:00 AM
Thu, Jul 18
4:00 AM
Thu, Jul 18
5:00 AM
Thu, Jul 18
6:00 AM
Thu, Jul 18
7:00 AM
Thu, Jul 18
8:00 AM
Thu, Jul 18
9:00 AM
Thu, Jul 18
10:00 AM
Thu, Jul 18
11:00 AM
Thu, Jul 18
12:00 PM
Thu, Jul 18
1:00 PM
Thu, Jul 18
2:00 PM
Thu, Jul 18
3:00 PM
Thu, Jul 18
4:00 PM
Thu, Jul 18
5:00 PM
Thu, Jul 18
6:00 PM
Thu, Jul 18
7:00 PM
Thu, Jul 18
8:00 PM
Thu, Jul 18
9:00 PM
Thu, Jul 18
10:00 PM
Thu, Jul 18
11:00 PM
Fri, Jul 19
12:00 AM
Fri, Jul 19
1:00 AM
Fri, Jul 19
2:00 AM
Fri, Jul 19
3:00 AM
Fri, Jul 19
4:00 AM
Condition
Rain

Rain

Clouds

Clouds

Rain

Clouds

Clouds

Clouds

Clouds

Clouds

Clouds

Clouds

Clouds

Clouds

Clouds

Clouds

Clouds

Clouds

Clouds

Clouds

Rain

Rain

Clouds

Clouds

Clouds

Clouds

Clouds

Clear

Clouds

Clouds

Clouds

Clouds

Clouds

Clouds

Clouds

Clouds

Clouds

Clouds

Clouds

Clear

Clear

Clear

Clear

Clear

Clear

Clear

Clear

Clear
Temperature 71°F72°F72°F72°F72°F74°F77°F80°F85°F89°F91°F91°F90°F88°F83°F79°F77°F77°F75°F75°F69°F68°F69°F69°F67°F66°F66°F69°F73°F77°F80°F82°F84°F85°F85°F85°F84°F82°F78°F73°F70°F67°F65°F64°F62°F61°F61°F60°F
Feels Like 73°F73°F73°F73°F74°F75°F78°F80°F90°F94°F95°F94°F92°F93°F87°F79°F78°F78°F75°F75°F70°F69°F69°F69°F67°F66°F67°F70°F73°F77°F80°F83°F84°F84°F84°F84°F83°F82°F78°F73°F70°F67°F65°F64°F62°F61°F61°F60°F
Cloudiness 100%100%100%100%100%100%100%100%100%100%99%99%99%100%100%88%95%97%97%98%98%100%100%100%88%83%69%1%44%59%45%56%50%58%75%84%88%90%92%9%7%4%3%3%3%0%0%0%
Visibility 2 mi3 mi3 mi3 mi6 mi6 mi6 mi6 mi6 mi6 mi6 mi6 mi6 mi6 mi6 mi6 mi6 mi6 mi6 mi6 mi6 mi6 mi6 mi6 mi6 mi6 mi6 mi6 mi6 mi6 mi6 mi6 mi6 mi6 mi6 mi6 mi6 mi6 mi6 mi6 mi6 mi6 mi6 mi6 mi6 mi6 mi6 mi6 mi
Precipitation 100%100%80%80%100%80%80%80%80%0%0%0%0%0%0%37%17%10%6%2%49%84%14%0%0%0%0%0%0%0%0%0%0%0%0%0%0%0%0%0%0%0%0%0%0%0%0%0%
Humidity 99%99%99%98%97%94%86%77%63%53%45%44%45%53%66%69%68%67%70%66%87%89%87%87%90%92%92%84%72%60%53%48%44%41%40%41%42%47%54%65%70%73%78%81%83%88%91%91%
Dew Point 71°F72°F71°F71°F71°F72°F71°F71°F70°F69°F67°F66°F66°F68°F70°F68°F66°F65°F64°F62°F65°F65°F64°F64°F63°F63°F63°F63°F63°F62°F61°F60°F59°F58°F58°F58°F58°F60°F60°F61°F59°F58°F58°F58°F57°F57°F57°F57°F
Pressure 29.94"29.94"29.94"29.94"29.97"30"30"29.97"29.97"29.97"29.94"29.94"29.91"29.91"29.94"29.94"30"30.03"30.03"30.06"30.09"30.09"30.06"30.09"30.09"30.09"30.12"30.12"30.15"30.15"30.12"30.12"30.12"30.09"30.09"30.06"30.06"30.06"30.06"30.06"30.06"30.09"30.09"30.12"30.15"30.15"30.15"30.15"
Wind Speed 1.2 mph2.1 mph3.3 mph4 mph2.9 mph2.3 mph3.5 mph2.7 mph3.5 mph4 mph4.8 mph5.8 mph7.4 mph7.4 mph9.8 mph8.7 mph8.4 mph9 mph7.5 mph6.7 mph5.1 mph4.9 mph4.6 mph4.6 mph3.5 mph4 mph4 mph5.6 mph6.5 mph5.7 mph5.2 mph5.6 mph6.7 mph7.6 mph7.1 mph7.3 mph7.7 mph7.8 mph7.9 mph6.4 mph5.7 mph4.3 mph3.9 mph4.3 mph4.2 mph3.4 mph2.7 mph2.8 mph
Wind
Direction
348°
NNW
286°
WNW
292°
WNW
282°
WNW
336°
NNW
312°
NW
323°
NW

N
344°
NNW
313°
NW
353°
N
20°
NNE
37°
NE
21°
NNE
16°
NNE
17°
NNE
26°
NNE
37°
NE
35°
NE
36°
NE
42°
NE
43°
NE
41°
NE
44°
NE
43°
NE
42°
NE
30°
NNE
53°
NE
58°
ENE
60°
ENE
51°
NE
34°
NE
25°
NNE
18°
NNE
21°
NNE
32°
NNE
35°
NE
26°
NNE
18°
NNE
19°
NNE
17°
NNE

N
33°
NNE
45°
NE
69°
ENE
77°
ENE
68°
ENE
66°
ENE

Daily Forecast

Date High Low Precip. Humidity
Today
Jul 17

Rain
91 °F
71 °F
100%
63%
Thursday
Jul 18

Rain
85 °F
65 °F
84%
44%
Friday
Jul 19

Clear
86 °F
58 °F
0%
42%
Saturday
Jul 20

Clouds
89 °F
60 °F
12%
43%
Sunday
Jul 21

Rain
78 °F
66 °F
100%
63%
Monday
Jul 22

Rain
75 °F
66 °F
100%
90%
Tuesday
Jul 23

Rain
81 °F
67 °F
100%
72%
Wednesday
Jul 24

Rain
77 °F
69 °F
100%
95%
Thursday
Jul 25

Rain
87 °F
69 °F
100%
77%
Friday
Jul 26

Rain
83 °F
69 °F
100%
80%
Saturday
Jul 27

Rain
91 °F
70 °F
100%
47%
Sunday
Jul 28

Clouds
93 °F
71 °F
0%
46%
Monday
Jul 29

Rain
97 °F
72 °F
75%
44%
Tuesday
Jul 30

Clouds
96 °F
76 °F
2%
45%
Wednesday
Jul 31

Rain
99 °F
73 °F
100%
39%
Thursday
Aug 1

Clouds
102 °F
76 °F
0%
34%

Temperature 8-14 Day Outlook



Precipitation 8-14 Day Outlook






About Us
Contact Us
Site Map
Search Site
Advertise With Us
   
BullShoals.USLakes.info
THE BULL SHOALS LAKE WEBSITE

Copyright 2024, Lakes Online
Privacy    |    Legal